This is the latest recevied weather packets stored in our database for station/object LA4GY-1. If no packets are shown the sender has not sent any weather packets the latest 10 day(s).
| Time | Temp. | Humidity | Pressure | Rain* | Wind** | Luminosity | Snow |
|---|---|---|---|---|---|---|---|
| 1788524261 | 17.22° C | 78% | 999 hPa | 0 mm | - | - | - |
| 1788523631 | 16.67° C | 79% | 999.1 hPa | 0 mm | - | - | - |
| 1788523031 | 16.67° C | 82% | 999.1 hPa | 0 mm | - | - | - |
| 1788522431 | 16.67° C | 79% | 999.2 hPa | 0 mm | - | - | - |
| 1788521831 | 16.67° C | 81% | 999.2 hPa | 0 mm | - | - | - |
| 1788521231 | 16.67° C | 82% | 999.3 hPa | 0 mm | - | - | - |
| 1788520601 | 15.56° C | 86% | 999.3 hPa | 0 mm | - | - | - |
| 1788520001 | 15° C | 86% | 999.4 hPa | 0 mm | - | - | - |
| 1788519408 | 15° C | 87% | 999.4 hPa | 0 mm | - | - | - |
| 1788518801 | 15° C | 86% | 999.5 hPa | 0 mm | - | - | - |
| 1788518201 | 15° C | 86% | 999.6 hPa | 0 mm | - | - | - |
| 1788517571 | 14.44° C | 87% | 999.7 hPa | 0 mm | - | - | - |
| 1788516971 | 14.44° C | 87% | 999.6 hPa | 0 mm | - | - | - |
| 1788516341 | 14.44° C | 86% | 999.7 hPa | 0 mm | - | - | - |
| 1788515741 | 14.44° C | 85% | 999.9 hPa | 0 mm | - | - | - |
| 1788515141 | 15° C | 85% | 999.8 hPa | 0 mm | - | - | - |
| 1788514541 | 14.44° C | 85% | 999.9 hPa | 0 mm | - | - | - |
| 1788513941 | 14.44° C | 89% | 999.9 hPa | 0 mm | - | - | - |
| 1788513348 | 13.89° C | 89% | 999.9 hPa | 0 mm | - | - | - |
| 1788512741 | 13.33° C | 89% | 1000 hPa | 0 mm | - | - | - |
| 1788512111 | 13.33° C | 91% | 1000.1 hPa | 0 mm | - | - | - |
| 1788511481 | 12.78° C | 91% | 1000.2 hPa | 0 mm | - | - | - |
| 1788510881 | 12.78° C | 91% | 1000.1 hPa | 0 mm | - | - | - |
| 1788510251 | 12.78° C | 91% | 1000 hPa | 0 mm | - | - | - |
| 1788509621 | 12.78° C | 91% | 1000.1 hPa | 0 mm | - | - | - |
* Rain latest hour (hover to see other rain measurements)
** Current wind speed in m/s (hover to see current wind gust speed)